Location: Cactus School
(34.5700°N, 118.0931°W)
Time: 19:30:36
(UTC-08:00)

A-11 Canister half - Pass Details

Date: 19 November 2019
Orbit: 1515 x 1685 km, 47.2° (Epoch: 13 December)

Event Time Altitude Azimuth Distance (km) Brightness Sun altitude
Rises 17:50:19 0° 248° (WSW) 4,864 13.6 -13.4°
Reaches altitude 10° 17:53:29 10° 251° (WSW) 3,896 12.6 -14.1°
Maximum altitude 18:03:26 64° 332° (NNW) 1,833 9.4 -16.1°
Enters shadow 18:11:31 18° 50° (NE) 3,351 10.2 -17.7°
